Track HINODE (SOLAR B) now! 10-day predictions HINODE (SOLAR B) is classified as:
1 29479U 06041A 23089.62005815 .00001744 00000-0 33144-3 0 9995 2 29479 98.1114 106.0429 0019335 47.6621 312.6216 14.65288774882658